{"data":{"norad_id":64541,"epoch":"2026-09-21T21:27:28.249344Z","epoch_age_seconds":61248,"freshness":"FRESH","line1":"1 64541U 25135P   26264.89407696  .00001968  00000+0  92625-4 0  9996","line2":"2 64541  97.4779  18.7022 0002726 176.7752 183.3502 15.20734221 69528","mean_motion":15.20734221,"eccentricity":0.0002726,"inclination_deg":97.4779,"raan_deg":18.7022,"arg_perigee_deg":176.7752,"mean_anomaly_deg":183.3502,"bstar":9.2625e-5,"rev_number":6952,"period_min":94.691102502651,"perigee_km":501.74871250283,"apogee_km":505.50064897117,"semimajor_km":6881.761680737,"source":"CELESTRAK","updated_at":"2026-09-22T09:00:29.841424Z"}}